Time,TemperatureF,DewpointF,PressureIn,WindDirection,WindDirectionDegrees,WindSpeedMPH,WindSpeedGustMPH,Humidity,HourlyPrecipIn,Conditions,Clouds,dailyrainin,SoftwareType,DateUTC
2013-05-24 00:08:00,77.2,69.8,30.06,ESE,112,0.0,-999.0,78,0.00,,,0.00,open2300 v1.10,2013-05-24 05:08:00,
2013-05-24 00:13:00,77.0,69.6,30.06,ESE,112,0.0,-999.0,78,0.00,,,0.00,open2300 v1.10,2013-05-24 05:13:00,
2013-05-24 00:18:00,76.8,69.4,30.06,West,270,0.0,-999.0,78,0.00,,,0.00,open2300 v1.10,2013-05-24 05:18:00,
2013-05-24 00:23:00,76.8,69.4,30.06,WNW,292,0.0,-999.0,78,0.00,,,0.00,open2300 v1.10,2013-05-24 05:23:00,
2013-05-24 00:28:00,76.8,69.4,30.07,WNW,292,0.0,-999.0,78,0.00,,,0.00,open2300 v1.10,2013-05-24 05:28:00,
2013-05-24 00:33:00,76.8,69.4,30.06,WNW,292,0.0,-999.0,78,0.00,,,0.00,open2300 v1.10,2013-05-24 05:33:00,
2013-05-24 00:39:00,76.8,69.4,30.07,WNW,292,0.0,-999.0,78,0.00,,,0.00,open2300 v1.10,2013-05-24 05:39:00,
2013-05-24 00:48:00,76.8,69.4,30.07,North,0,0.0,-999.0,78,0.00,,,0.00,open2300 v1.10,2013-05-24 05:48:00,
2013-05-24 00:53:00,76.6,69.2,30.07,NNW,337,0.0,-999.0,78,0.00,,,0.00,open2300 v1.10,2013-05-24 05:53:00,
2013-05-24 00:59:00,76.5,69.1,30.07,NNE,22,1.6,-999.0,78,0.00,,,0.00,open2300 v1.10,2013-05-24 05:59:00,
2013-05-24 01:10:00,76.5,69.1,30.07,NNE,22,1.6,-999.0,78,0.00,,,0.00,open2300 v1.10,2013-05-24 06:10:00,
2013-05-24 01:18:00,75.9,69.0,30.07,NNW,337,0.0,-999.0,79,0.00,,,0.00,open2300 v1.10,2013-05-24 06:18:00,
2013-05-24 01:23:00,75.9,69.0,30.07,NW,315,0.0,-999.0,79,0.00,,,0.00,open2300 v1.10,2013-05-24 06:23:00,
2013-05-24 01:28:00,76.1,69.1,30.07,NNE,22,0.0,-999.0,79,0.00,,,0.00,open2300 v1.10,2013-05-24 06:28:00,
2013-05-24 01:33:00,76.1,69.1,30.07,North,0,0.0,-999.0,79,0.00,,,0.00,open2300 v1.10,2013-05-24 06:33:00,
2013-05-24 01:38:00,75.9,69.0,30.06,North,0,0.0,-999.0,79,0.00,,,0.00,open2300 v1.10,2013-05-24 06:38:00,
2013-05-24 01:43:00,75.6,68.7,30.07,NNW,337,0.0,-999.0,79,0.00,,,0.00,open2300 v1.10,2013-05-24 06:43:00,
2013-05-24 01:48:00,75.6,68.7,30.07,North,0,0.0,-999.0,79,0.00,,,0.00,open2300 v1.10,2013-05-24 06:48:00,
2013-05-24 01:53:00,75.4,68.5,30.07,North,0,0.7,-999.0,79,0.00,,,0.00,open2300 v1.10,2013-05-24 06:53:00,
2013-05-24 01:58:00,75.0,68.1,30.06,NNE,22,0.0,-999.0,79,0.00,,,0.00,open2300 v1.10,2013-05-24 06:58:00,
2013-05-24 02:10:00,75.0,68.1,30.07,NNE,22,0.0,-999.0,79,0.00,,,0.00,open2300 v1.10,2013-05-24 07:10:00,
2013-05-24 02:18:00,74.5,68.0,30.07,NNE,22,0.0,-999.0,80,0.00,,,0.00,open2300 v1.10,2013-05-24 07:18:00,
2013-05-24 02:23:00,74.5,68.0,30.07,NNE,22,0.0,-999.0,80,0.00,,,0.00,open2300 v1.10,2013-05-24 07:23:00,
2013-05-24 02:28:00,74.3,67.8,30.07,NNE,22,0.0,-999.0,80,0.00,,,0.00,open2300 v1.10,2013-05-24 07:28:00,
2013-05-24 02:33:00,74.1,67.6,30.07,NNE,22,0.0,-999.0,80,0.00,,,0.00,open2300 v1.10,2013-05-24 07:33:00,
2013-05-24 02:38:00,73.9,67.5,30.07,NNE,22,0.0,-999.0,80,0.00,,,0.00,open2300 v1.10,2013-05-24 07:38:00,
2013-05-24 02:43:00,73.9,67.5,30.07,NNE,22,0.0,-999.0,80,0.00,,,0.00,open2300 v1.10,2013-05-24 07:43:00,
2013-05-24 02:48:00,73.9,67.5,30.07,NNE,22,0.0,-999.0,80,0.00,,,0.00,open2300 v1.10,2013-05-24 07:48:00,
2013-05-24 02:53:00,73.9,67.8,30.07,NNE,22,0.0,-999.0,81,0.00,,,0.00,open2300 v1.10,2013-05-24 07:53:00,
2013-05-24 02:59:00,73.8,67.3,30.07,NNE,22,0.0,-999.0,80,0.00,,,0.00,open2300 v1.10,2013-05-24 07:59:00,
2013-05-24 03:05:00,73.6,67.4,30.07,NNE,22,0.0,-999.0,81,0.00,,,0.00,open2300 v1.10,2013-05-24 08:05:00,
2013-05-24 03:13:00,73.6,67.4,30.07,NNE,22,0.0,-999.0,81,0.00,,,0.00,open2300 v1.10,2013-05-24 08:13:00,
2013-05-24 03:18:00,73.4,67.3,30.07,NNE,22,0.0,-999.0,81,0.00,,,0.00,open2300 v1.10,2013-05-24 08:18:00,
2013-05-24 03:23:00,73.2,67.1,30.07,NNE,22,0.0,-999.0,81,0.00,,,0.00,open2300 v1.10,2013-05-24 08:23:00,
2013-05-24 03:28:00,73.2,67.1,30.07,East,90,0.0,-999.0,81,0.00,,,0.00,open2300 v1.10,2013-05-24 08:28:00,
2013-05-24 03:33:00,73.0,66.9,30.07,East,90,0.0,-999.0,81,0.00,,,0.00,open2300 v1.10,2013-05-24 08:33:00,
2013-05-24 03:38:00,73.0,67.2,30.07,ESE,112,0.0,-999.0,82,0.00,,,0.00,open2300 v1.10,2013-05-24 08:38:00,
2013-05-24 03:43:00,72.7,66.9,30.07,ESE,112,0.0,-999.0,82,0.00,,,0.00,open2300 v1.10,2013-05-24 08:43:00,
2013-05-24 03:54:00,72.5,66.7,30.07,ESE,112,0.0,-999.0,82,0.00,,,0.00,open2300 v1.10,2013-05-24 08:54:00,
2013-05-24 03:59:00,72.3,66.5,30.07,ESE,112,0.0,-999.0,82,0.00,,,0.00,open2300 v1.10,2013-05-24 08:59:00,
2013-05-24 04:08:00,72.1,66.7,30.07,ESE,112,0.0,-999.0,83,0.00,,,0.00,open2300 v1.10,2013-05-24 09:08:00,
2013-05-24 04:13:00,72.1,66.7,30.07,ESE,112,0.0,-999.0,83,0.00,,,0.00,open2300 v1.10,2013-05-24 09:13:00,
2013-05-24 04:18:00,72.0,66.5,30.07,ESE,112,0.0,-999.0,83,0.00,,,0.00,open2300 v1.10,2013-05-24 09:18:00,
2013-05-24 04:23:00,72.0,66.5,30.08,ESE,112,0.0,-999.0,83,0.00,,,0.00,open2300 v1.10,2013-05-24 09:23:00,
2013-05-24 04:28:00,71.8,66.3,30.07,ESE,112,0.0,-999.0,83,0.00,,,0.00,open2300 v1.10,2013-05-24 09:28:00,
2013-05-24 04:33:00,71.8,66.3,30.07,ESE,112,0.0,-999.0,83,0.00,,,0.00,open2300 v1.10,2013-05-24 09:33:00,
2013-05-24 04:38:00,71.8,66.3,30.07,ESE,112,0.0,-999.0,83,0.00,,,0.00,open2300 v1.10,2013-05-24 09:38:00,
2013-05-24 04:43:00,71.4,66.0,30.07,ESE,112,0.0,-999.0,83,0.00,,,0.00,open2300 v1.10,2013-05-24 09:43:00,
2013-05-24 04:48:00,71.4,66.0,30.08,ESE,112,0.0,-999.0,83,0.00,,,0.00,open2300 v1.10,2013-05-24 09:48:00,
2013-05-24 04:53:00,71.4,66.0,30.07,ESE,112,0.0,-999.0,83,0.00,,,0.00,open2300 v1.10,2013-05-24 09:53:00,
2013-05-24 04:59:00,71.4,66.3,30.08,ESE,112,0.0,-999.0,84,0.00,,,0.00,open2300 v1.10,2013-05-24 09:59:00,
2013-05-24 05:08:00,71.4,66.3,30.09,ESE,112,0.0,-999.0,84,0.00,,,0.00,open2300 v1.10,2013-05-24 10:08:00,
2013-05-24 05:13:00,71.4,66.3,30.09,ESE,112,0.0,-999.0,84,0.00,,,0.00,open2300 v1.10,2013-05-24 10:13:00,
2013-05-24 05:18:00,71.2,66.1,30.09,ESE,112,0.0,-999.0,84,0.00,,,0.00,open2300 v1.10,2013-05-24 10:18:00,
2013-05-24 05:28:00,71.2,66.1,30.10,ESE,112,0.0,-999.0,84,0.00,,,0.00,open2300 v1.10,2013-05-24 10:28:00,
2013-05-24 05:33:00,71.2,66.1,30.10,ESE,112,0.0,-999.0,84,0.00,,,0.00,open2300 v1.10,2013-05-24 10:33:00,
2013-05-24 05:38:00,71.2,66.1,30.10,ESE,112,0.0,-999.0,84,0.00,,,0.00,open2300 v1.10,2013-05-24 10:38:00,
2013-05-24 05:43:00,71.2,66.1,30.11,ESE,112,0.0,-999.0,84,0.00,,,0.00,open2300 v1.10,2013-05-24 10:43:00,
2013-05-24 05:48:00,71.2,66.1,30.11,ESE,112,0.0,-999.0,84,0.00,,,0.00,open2300 v1.10,2013-05-24 10:48:00,
2013-05-24 05:53:00,71.4,66.3,30.12,ESE,112,0.0,-999.0,84,0.00,,,0.00,open2300 v1.10,2013-05-24 10:53:00,
2013-05-24 05:59:00,71.4,66.3,30.12,ESE,112,0.0,-999.0,84,0.00,,,0.00,open2300 v1.10,2013-05-24 10:59:00,
2013-05-24 06:08:00,71.4,66.3,30.11,ESE,112,0.0,-999.0,84,0.00,,,0.00,open2300 v1.10,2013-05-24 11:08:00,
2013-05-24 06:13:00,71.4,66.3,30.12,ESE,112,0.0,-999.0,84,0.00,,,0.00,open2300 v1.10,2013-05-24 11:13:00,
2013-05-24 06:18:00,71.4,66.3,30.12,ESE,112,0.0,-999.0,84,0.00,,,0.00,open2300 v1.10,2013-05-24 11:18:00,
2013-05-24 06:23:00,71.2,66.1,30.12,ESE,112,0.0,-999.0,84,0.00,,,0.00,open2300 v1.10,2013-05-24 11:23:00,
2013-05-24 06:28:00,71.2,66.1,30.12,ESE,112,0.0,-999.0,84,0.00,,,0.00,open2300 v1.10,2013-05-24 11:28:00,
2013-05-24 06:33:00,71.4,66.7,30.12,ESE,112,0.0,-999.0,85,0.00,,,0.00,open2300 v1.10,2013-05-24 11:33:00,
2013-05-24 06:38:00,71.4,66.7,30.12,ESE,112,0.9,-999.0,85,0.00,,,0.00,open2300 v1.10,2013-05-24 11:38:00,
2013-05-24 06:48:00,72.0,66.8,30.12,ESE,112,1.8,-999.0,84,0.00,,,0.00,open2300 v1.10,2013-05-24 11:48:00,
2013-05-24 06:53:00,72.1,67.0,30.12,ESE,112,5.6,-999.0,84,0.00,,,0.00,open2300 v1.10,2013-05-24 11:53:00,
2013-05-24 06:59:00,72.3,66.9,30.13,ESE,112,4.2,-999.0,83,0.00,,,0.00,open2300 v1.10,2013-05-24 11:59:00,
2013-05-24 07:08:00,72.9,67.1,30.13,ESE,112,2.5,-999.0,82,0.00,,,0.00,open2300 v1.10,2013-05-24 12:08:00,
2013-05-24 07:13:00,73.2,66.9,30.13,ESE,112,5.1,-999.0,81,0.00,,,0.00,open2300 v1.10,2013-05-24 12:13:00,
2013-05-24 07:18:00,73.4,66.9,30.13,SE,135,6.9,-999.0,80,0.00,,,0.00,open2300 v1.10,2013-05-24 12:18:00,
2013-05-24 07:23:00,73.8,66.9,30.14,ESE,112,0.0,-999.0,79,0.00,,,0.00,open2300 v1.10,2013-05-24 12:23:00,
2013-05-24 07:28:00,74.1,67.2,30.15,ESE,112,0.0,-999.0,79,0.00,,,0.00,open2300 v1.10,2013-05-24 12:28:00,
2013-05-24 07:33:00,74.5,67.2,30.14,ESE,112,0.4,-999.0,78,0.00,,,0.00,open2300 v1.10,2013-05-24 12:33:00,
2013-05-24 07:38:00,74.8,67.6,30.14,ESE,112,5.1,-999.0,78,0.00,,,0.00,open2300 v1.10,2013-05-24 12:38:00,
2013-05-24 07:43:00,75.0,67.0,30.14,ESE,112,2.0,-999.0,76,0.00,,,0.00,open2300 v1.10,2013-05-24 12:43:00,
2013-05-24 07:48:00,75.4,67.3,30.15,East,90,9.4,-999.0,76,0.00,,,0.00,open2300 v1.10,2013-05-24 12:48:00,
2013-05-24 07:53:00,75.4,66.5,30.15,East,90,2.2,-999.0,74,0.00,,,0.00,open2300 v1.10,2013-05-24 12:53:00,
2013-05-24 07:59:00,75.6,66.3,30.16,ESE,112,8.5,-999.0,73,0.00,,,0.00,open2300 v1.10,2013-05-24 12:59:00,
2013-05-24 08:08:00,75.9,66.2,30.16,ESE,112,1.8,-999.0,72,0.00,,,0.00,open2300 v1.10,2013-05-24 13:08:00,
2013-05-24 08:13:00,76.1,66.0,30.16,SE,135,0.0,-999.0,71,0.00,,,0.00,open2300 v1.10,2013-05-24 13:13:00,
2013-05-24 08:18:00,76.3,65.8,30.17,ESE,112,7.2,-999.0,70,0.00,,,0.00,open2300 v1.10,2013-05-24 13:18:00,
2013-05-24 08:23:00,76.5,66.0,30.17,East,90,12.1,-999.0,70,0.00,,,0.00,open2300 v1.10,2013-05-24 13:23:00,
2013-05-24 08:28:00,76.8,65.9,30.17,East,90,6.3,-999.0,69,0.00,,,0.00,open2300 v1.10,2013-05-24 13:28:00,
2013-05-24 08:33:00,76.8,65.9,30.17,ESE,112,6.7,-999.0,69,0.00,,,0.00,open2300 v1.10,2013-05-24 13:33:00,
2013-05-24 08:38:00,77.2,65.8,30.17,East,90,5.8,-999.0,68,0.00,,,0.00,open2300 v1.10,2013-05-24 13:38:00,
2013-05-24 08:43:00,77.4,65.5,30.17,ESE,112,7.2,-999.0,67,0.00,,,0.00,open2300 v1.10,2013-05-24 13:43:00,
2013-05-24 08:48:00,77.4,65.5,30.18,ESE,112,2.9,-999.0,67,0.00,,,0.00,open2300 v1.10,2013-05-24 13:48:00,
2013-05-24 08:53:00,77.5,65.7,30.18,SE,135,8.3,-999.0,67,0.00,,,0.00,open2300 v1.10,2013-05-24 13:53:00,
2013-05-24 08:58:00,77.9,65.6,30.18,SE,135,0.0,-999.0,66,0.00,,,0.00,open2300 v1.10,2013-05-24 13:58:00,
2013-05-24 09:08:00,78.4,65.7,30.18,East,90,3.6,-999.0,65,0.00,,,0.00,open2300 v1.10,2013-05-24 14:08:00,
2013-05-24 09:13:00,78.6,65.4,30.18,ESE,112,5.8,-999.0,64,0.00,,,0.00,open2300 v1.10,2013-05-24 14:13:00,
2013-05-24 09:18:00,79.0,65.8,30.18,SE,135,15.7,-999.0,64,0.00,,,0.00,open2300 v1.10,2013-05-24 14:18:00,
2013-05-24 09:23:00,79.2,65.5,30.19,SE,135,1.3,-999.0,63,0.00,,,0.00,open2300 v1.10,2013-05-24 14:23:00,
2013-05-24 09:33:00,79.9,65.7,30.19,ESE,112,0.0,-999.0,62,0.00,,,0.00,open2300 v1.10,2013-05-24 14:33:00,
2013-05-24 09:38:00,80.2,66.0,30.19,ESE,112,0.0,-999.0,62,0.00,,,0.00,open2300 v1.10,2013-05-24 14:38:00,
2013-05-24 09:43:00,80.4,66.2,30.19,SE,135,2.0,-999.0,62,0.00,,,0.00,open2300 v1.10,2013-05-24 14:43:00,
2013-05-24 09:48:00,80.4,65.8,30.19,East,90,0.0,-999.0,61,0.00,,,0.00,open2300 v1.10,2013-05-24 14:48:00,
2013-05-24 09:53:00,80.4,65.8,30.19,East,90,11.4,-999.0,61,0.00,,,0.00,open2300 v1.10,2013-05-24 14:53:00,
2013-05-24 09:59:00,80.4,65.8,30.19,ESE,112,5.6,-999.0,61,0.00,,,0.00,open2300 v1.10,2013-05-24 14:59:00,
2013-05-24 10:08:00,80.4,65.3,30.19,ESE,112,6.7,-999.0,60,0.00,,,0.00,open2300 v1.10,2013-05-24 15:08:00,
2013-05-24 10:13:00,80.1,65.4,30.19,East,90,8.3,-999.0,61,0.00,,,0.00,open2300 v1.10,2013-05-24 15:13:00,
2013-05-24 10:18:00,79.9,65.3,30.20,East,90,8.1,-999.0,61,0.00,,,0.00,open2300 v1.10,2013-05-24 15:18:00,
2013-05-24 10:23:00,80.2,65.6,30.20,ESE,112,9.6,-999.0,61,0.00,,,0.00,open2300 v1.10,2013-05-24 15:23:00,
2013-05-24 10:28:00,80.2,65.2,30.20,SE,135,12.3,-999.0,60,0.00,,,0.00,open2300 v1.10,2013-05-24 15:28:00,
2013-05-24 10:33:00,80.2,65.2,30.20,ESE,112,6.3,-999.0,60,0.00,,,0.00,open2300 v1.10,2013-05-24 15:33:00,
2013-05-24 10:38:00,80.2,65.2,30.19,SE,135,5.8,-999.0,60,0.00,,,0.00,open2300 v1.10,2013-05-24 15:38:00,
2013-05-24 10:48:00,79.7,65.1,30.19,ESE,112,10.3,-999.0,61,0.00,,,0.00,open2300 v1.10,2013-05-24 15:48:00,
2013-05-24 10:59:00,79.3,64.8,30.19,ESE,112,12.8,-999.0,61,0.00,,,0.00,open2300 v1.10,2013-05-24 15:59:00,
2013-05-24 11:08:00,79.3,64.8,30.19,East,90,7.2,-999.0,61,0.00,,,0.00,open2300 v1.10,2013-05-24 16:08:00,
2013-05-24 11:13:00,79.0,64.4,30.19,ESE,112,13.9,-999.0,61,0.00,,,0.00,open2300 v1.10,2013-05-24 16:13:00,
2013-05-24 11:18:00,79.0,64.9,30.19,ESE,112,10.5,-999.0,62,0.00,,,0.00,open2300 v1.10,2013-05-24 16:18:00,
2013-05-24 11:23:00,78.8,64.7,30.19,East,90,6.9,-999.0,62,0.00,,,0.00,open2300 v1.10,2013-05-24 16:23:00,
2013-05-24 11:28:00,79.0,64.9,30.20,ESE,112,4.9,-999.0,62,0.00,,,0.00,open2300 v1.10,2013-05-24 16:28:00,
2013-05-24 11:33:00,79.2,65.1,30.20,ESE,112,11.2,-999.0,62,0.00,,,0.00,open2300 v1.10,2013-05-24 16:33:00,
2013-05-24 11:38:00,79.2,64.6,30.20,ESE,112,7.2,-999.0,61,0.00,,,0.00,open2300 v1.10,2013-05-24 16:38:00,
2013-05-24 11:43:00,79.3,65.2,30.20,ESE,112,0.0,-999.0,62,0.00,,,0.00,open2300 v1.10,2013-05-24 16:43:00,
2013-05-24 11:48:00,79.5,65.4,30.20,ESE,112,10.5,-999.0,62,0.00,,,0.00,open2300 v1.10,2013-05-24 16:48:00,
2013-05-24 11:53:00,79.7,65.1,30.20,ESE,112,10.7,-999.0,61,0.00,,,0.00,open2300 v1.10,2013-05-24 16:53:00,
2013-05-24 11:59:00,79.9,65.3,30.20,East,90,13.2,-999.0,61,0.00,,,0.00,open2300 v1.10,2013-05-24 16:59:00,
2013-05-24 12:08:00,80.4,65.3,30.20,East,90,3.8,-999.0,60,0.00,,,0.00,open2300 v1.10,2013-05-24 17:08:00,
2013-05-24 12:13:00,81.3,65.6,30.20,East,90,11.4,-999.0,59,0.00,,,0.00,open2300 v1.10,2013-05-24 17:13:00,
2013-05-24 12:18:00,81.9,65.6,30.21,East,90,6.0,-999.0,58,0.00,,,0.00,open2300 v1.10,2013-05-24 17:18:00,
2013-05-24 12:23:00,82.4,66.1,30.20,East,90,2.9,-999.0,58,0.00,,,0.00,open2300 v1.10,2013-05-24 17:23:00,
2013-05-24 12:33:00,83.1,66.2,30.20,East,90,0.2,-999.0,57,0.00,,,0.00,open2300 v1.10,2013-05-24 17:33:00,
2013-05-24 12:38:00,83.5,66.1,30.20,East,90,9.8,-999.0,56,0.00,,,0.00,open2300 v1.10,2013-05-24 17:38:00,
2013-05-24 12:43:00,84.0,66.6,30.20,East,90,8.7,-999.0,56,0.00,,,0.00,open2300 v1.10,2013-05-24 17:43:00,
2013-05-24 12:48:00,84.4,66.4,30.20,ESE,112,12.3,-999.0,55,0.00,,,0.00,open2300 v1.10,2013-05-24 17:48:00,
2013-05-24 12:53:00,84.6,66.1,30.20,ESE,112,4.5,-999.0,54,0.00,,,0.00,open2300 v1.10,2013-05-24 17:53:00,
2013-05-24 12:58:00,84.7,66.2,30.20,East,90,7.6,-999.0,54,0.00,,,0.00,open2300 v1.10,2013-05-24 17:58:00,
2013-05-24 13:08:00,84.2,66.3,30.20,ESE,112,10.5,-999.0,55,0.00,,,0.00,open2300 v1.10,2013-05-24 18:08:00,
2013-05-24 13:13:00,84.0,66.6,30.20,ESE,112,9.4,-999.0,56,0.00,,,0.00,open2300 v1.10,2013-05-24 18:13:00,
2013-05-24 13:18:00,84.0,66.6,30.20,East,90,2.9,-999.0,56,0.00,,,0.00,open2300 v1.10,2013-05-24 18:18:00,
2013-05-24 13:23:00,84.0,66.1,30.20,ESE,112,11.6,-999.0,55,0.00,,,0.00,open2300 v1.10,2013-05-24 18:23:00,
2013-05-24 13:28:00,84.0,66.6,30.20,East,90,0.0,-999.0,56,0.00,,,0.00,open2300 v1.10,2013-05-24 18:28:00,
2013-05-24 13:33:00,84.0,66.1,30.20,ENE,67,7.8,-999.0,55,0.00,,,0.00,open2300 v1.10,2013-05-24 18:33:00,
2013-05-24 13:39:00,84.2,66.3,30.20,ESE,112,9.2,-999.0,55,0.00,,,0.00,open2300 v1.10,2013-05-24 18:39:00,
2013-05-24 13:48:00,84.6,66.1,30.19,SSE,157,2.9,-999.0,54,0.00,,,0.00,open2300 v1.10,2013-05-24 18:48:00,
2013-05-24 13:53:00,84.6,65.6,30.20,ESE,112,7.6,-999.0,53,0.00,,,0.00,open2300 v1.10,2013-05-24 18:53:00,
2013-05-24 13:59:00,84.6,66.1,30.20,ESE,112,3.6,-999.0,54,0.00,,,0.00,open2300 v1.10,2013-05-24 18:59:00,
2013-05-24 14:08:00,84.7,66.2,30.19,ESE,112,10.3,-999.0,54,0.00,,,0.00,open2300 v1.10,2013-05-24 19:08:00,
2013-05-24 14:13:00,84.9,66.4,30.19,East,90,6.3,-999.0,54,0.00,,,0.00,open2300 v1.10,2013-05-24 19:13:00,
2013-05-24 14:18:00,85.1,66.6,30.19,ESE,112,0.7,-999.0,54,0.00,,,0.00,open2300 v1.10,2013-05-24 19:18:00,
2013-05-24 14:23:00,85.5,67.4,30.19,SE,135,10.5,-999.0,55,0.00,,,0.00,open2300 v1.10,2013-05-24 19:23:00,
2013-05-24 14:28:00,85.8,67.2,30.19,ENE,67,5.8,-999.0,54,0.00,,,0.00,open2300 v1.10,2013-05-24 19:28:00,
2013-05-24 14:33:00,85.8,67.2,30.19,East,90,10.3,-999.0,54,0.00,,,0.00,open2300 v1.10,2013-05-24 19:33:00,
2013-05-24 14:38:00,85.8,67.2,30.19,East,90,0.0,-999.0,54,0.00,,,0.00,open2300 v1.10,2013-05-24 19:38:00,
2013-05-24 14:48:00,86.2,67.0,30.19,SE,135,2.0,-999.0,53,0.00,,,0.00,open2300 v1.10,2013-05-24 19:48:00,
2013-05-24 14:54:00,86.2,67.0,30.19,ESE,112,0.0,-999.0,53,0.00,,,0.00,open2300 v1.10,2013-05-24 19:54:00,
2013-05-24 14:59:00,85.8,66.7,30.19,ESE,112,0.0,-999.0,53,0.00,,,0.00,open2300 v1.10,2013-05-24 19:59:00,
2013-05-24 15:08:00,85.6,66.5,30.19,East,90,6.9,-999.0,53,0.00,,,0.00,open2300 v1.10,2013-05-24 20:08:00,
2013-05-24 15:13:00,85.3,66.2,30.19,East,90,8.3,-999.0,53,0.00,,,0.00,open2300 v1.10,2013-05-24 20:13:00,
2013-05-24 15:18:00,85.3,66.2,30.19,East,90,10.5,-999.0,53,0.00,,,0.00,open2300 v1.10,2013-05-24 20:18:00,
2013-05-24 15:23:00,84.9,65.9,30.18,East,90,6.9,-999.0,53,0.00,,,0.00,open2300 v1.10,2013-05-24 20:23:00,
2013-05-24 15:28:00,84.6,66.1,30.19,ESE,112,7.6,-999.0,54,0.00,,,0.00,open2300 v1.10,2013-05-24 20:28:00,
2013-05-24 15:33:00,84.6,66.1,30.18,ESE,112,2.2,-999.0,54,0.00,,,0.00,open2300 v1.10,2013-05-24 20:33:00,
2013-05-24 15:38:00,84.6,66.1,30.18,SE,135,0.0,-999.0,54,0.00,,,0.00,open2300 v1.10,2013-05-24 20:38:00,
2013-05-24 15:43:00,84.6,66.1,30.18,ESE,112,4.2,-999.0,54,0.00,,,0.00,open2300 v1.10,2013-05-24 20:43:00,
2013-05-24 15:48:00,84.6,66.1,30.18,East,90,3.6,-999.0,54,0.00,,,0.00,open2300 v1.10,2013-05-24 20:48:00,
2013-05-24 15:53:00,84.4,66.4,30.17,East,90,0.0,-999.0,55,0.00,,,0.00,open2300 v1.10,2013-05-24 20:53:00,
2013-05-24 15:58:00,84.6,66.6,30.17,East,90,4.7,-999.0,55,0.00,,,0.00,open2300 v1.10,2013-05-24 20:58:00,
2013-05-24 16:08:00,84.6,66.6,30.17,ESE,112,6.7,-999.0,55,0.00,,,0.00,open2300 v1.10,2013-05-24 21:08:00,
2013-05-24 16:13:00,84.4,66.4,30.16,East,90,8.1,-999.0,55,0.00,,,0.00,open2300 v1.10,2013-05-24 21:13:00,
2013-05-24 16:18:00,84.4,66.4,30.16,ESE,112,2.2,-999.0,55,0.00,,,0.00,open2300 v1.10,2013-05-24 21:18:00,
2013-05-24 16:23:00,84.2,66.8,30.15,ESE,112,8.5,-999.0,56,0.00,,,0.00,open2300 v1.10,2013-05-24 21:23:00,
2013-05-24 16:28:00,84.0,66.1,30.16,East,90,4.7,-999.0,55,0.00,,,0.00,open2300 v1.10,2013-05-24 21:28:00,
2013-05-24 16:33:00,84.0,66.6,30.16,ESE,112,9.4,-999.0,56,0.00,,,0.00,open2300 v1.10,2013-05-24 21:33:00,
2013-05-24 16:38:00,84.0,66.1,30.16,East,90,7.4,-999.0,55,0.00,,,0.00,open2300 v1.10,2013-05-24 21:38:00,
2013-05-24 16:48:00,84.0,66.1,30.15,East,90,8.9,-999.0,55,0.00,,,0.00,open2300 v1.10,2013-05-24 21:48:00,
2013-05-24 16:53:00,83.8,65.9,30.15,East,90,6.7,-999.0,55,0.00,,,0.00,open2300 v1.10,2013-05-24 21:53:00,
2013-05-24 16:58:00,83.5,66.1,30.15,ESE,112,8.3,-999.0,56,0.00,,,0.00,open2300 v1.10,2013-05-24 21:58:00,
2013-05-24 17:08:00,83.3,65.4,30.15,ENE,67,5.1,-999.0,55,0.00,,,0.00,open2300 v1.10,2013-05-24 22:08:00,
2013-05-24 17:13:00,83.1,65.2,30.15,SE,135,5.4,-999.0,55,0.00,,,0.00,open2300 v1.10,2013-05-24 22:13:00,
2013-05-24 17:23:00,83.1,65.2,30.14,East,90,7.4,-999.0,55,0.00,,,0.00,open2300 v1.10,2013-05-24 22:23:00,
2013-05-24 17:28:00,83.1,65.2,30.14,ESE,112,8.5,-999.0,55,0.00,,,0.00,open2300 v1.10,2013-05-24 22:28:00,
2013-05-24 17:33:00,82.9,65.0,30.14,East,90,9.6,-999.0,55,0.00,,,0.00,open2300 v1.10,2013-05-24 22:33:00,
2013-05-24 17:38:00,82.9,65.0,30.14,East,90,4.7,-999.0,55,0.00,,,0.00,open2300 v1.10,2013-05-24 22:38:00,
2013-05-24 17:43:00,82.6,65.2,30.14,East,90,0.0,-999.0,56,0.00,,,0.00,open2300 v1.10,2013-05-24 22:43:00,
2013-05-24 17:48:00,82.6,65.2,30.14,East,90,4.5,-999.0,56,0.00,,,0.00,open2300 v1.10,2013-05-24 22:48:00,
2013-05-24 17:53:00,82.6,65.2,30.14,East,90,6.5,-999.0,56,0.00,,,0.00,open2300 v1.10,2013-05-24 22:53:00,
2013-05-24 17:59:00,82.6,65.2,30.13,East,90,3.1,-999.0,56,0.00,,,0.00,open2300 v1.10,2013-05-24 22:59:00,
2013-05-24 18:08:00,82.4,65.0,30.14,East,90,6.3,-999.0,56,0.00,,,0.00,open2300 v1.10,2013-05-24 23:08:00,
2013-05-24 18:13:00,82.2,65.4,30.14,ESE,112,8.5,-999.0,57,0.00,,,0.00,open2300 v1.10,2013-05-24 23:13:00,
2013-05-24 18:18:00,82.2,65.4,30.14,ESE,112,5.8,-999.0,57,0.00,,,0.00,open2300 v1.10,2013-05-24 23:18:00,
2013-05-24 18:23:00,82.2,64.8,30.14,SE,135,6.3,-999.0,56,0.00,,,0.00,open2300 v1.10,2013-05-24 23:23:00,
2013-05-24 18:28:00,82.0,64.7,30.14,ESE,112,6.3,-999.0,56,0.00,,,0.00,open2300 v1.10,2013-05-24 23:28:00,
2013-05-24 18:33:00,82.0,64.7,30.13,ESE,112,5.4,-999.0,56,0.00,,,0.00,open2300 v1.10,2013-05-24 23:33:00,
2013-05-24 18:38:00,81.7,64.9,30.14,East,90,4.7,-999.0,57,0.00,,,0.00,open2300 v1.10,2013-05-24 23:38:00,
2013-05-24 18:48:00,81.5,64.7,30.14,ESE,112,0.0,-999.0,57,0.00,,,0.00,open2300 v1.10,2013-05-24 23:48:00,
2013-05-24 18:53:00,81.3,65.1,30.14,NE,45,2.9,-999.0,58,0.00,,,0.00,open2300 v1.10,2013-05-24 23:53:00,
2013-05-24 18:59:00,81.1,64.9,30.14,ESE,112,1.1,-999.0,58,0.00,,,0.00,open2300 v1.10,2013-05-24 23:59:00,
2013-05-24 19:08:00,81.0,65.3,30.14,ESE,112,0.0,-999.0,59,0.00,,,0.00,open2300 v1.10,2013-05-25 00:08:00,
2013-05-24 19:13:00,80.8,65.1,30.14,East,90,3.6,-999.0,59,0.00,,,0.00,open2300 v1.10,2013-05-25 00:13:00,
2013-05-24 19:18:00,80.8,65.1,30.14,East,90,0.0,-999.0,59,0.00,,,0.00,open2300 v1.10,2013-05-25 00:18:00,
2013-05-24 19:23:00,80.6,65.0,30.15,East,90,0.9,-999.0,59,0.00,,,0.00,open2300 v1.10,2013-05-25 00:23:00,
2013-05-24 19:28:00,80.4,64.8,30.15,East,90,0.0,-999.0,59,0.00,,,0.00,open2300 v1.10,2013-05-25 00:28:00,
2013-05-24 19:38:00,80.2,65.2,30.15,ESE,112,0.4,-999.0,60,0.00,,,0.00,open2300 v1.10,2013-05-25 00:38:00,
2013-05-24 19:43:00,79.9,64.8,30.15,ESE,112,2.7,-999.0,60,0.00,,,0.00,open2300 v1.10,2013-05-25 00:43:00,
2013-05-24 19:48:00,79.5,64.9,30.15,ESE,112,0.0,-999.0,61,0.00,,,0.00,open2300 v1.10,2013-05-25 00:48:00,
2013-05-24 19:53:00,79.3,64.8,30.16,ESE,112,0.0,-999.0,61,0.00,,,0.00,open2300 v1.10,2013-05-25 00:53:00,
2013-05-24 19:59:00,79.2,64.6,30.16,ESE,112,0.0,-999.0,61,0.00,,,0.00,open2300 v1.10,2013-05-25 00:59:00,
2013-05-24 20:08:00,78.6,64.5,30.16,ESE,112,0.7,-999.0,62,0.00,,,0.00,open2300 v1.10,2013-05-25 01:08:00,
2013-05-24 20:13:00,78.4,64.4,30.16,East,90,0.0,-999.0,62,0.00,,,0.00,open2300 v1.10,2013-05-25 01:13:00,
2013-05-24 20:18:00,78.3,64.2,30.17,ESE,112,6.7,-999.0,62,0.00,,,0.00,open2300 v1.10,2013-05-25 01:18:00,
2013-05-24 20:23:00,78.1,64.4,30.16,East,90,0.0,-999.0,63,0.00,,,0.00,open2300 v1.10,2013-05-25 01:23:00,
2013-05-24 20:28:00,77.7,64.1,30.17,East,90,0.0,-999.0,63,0.00,,,0.00,open2300 v1.10,2013-05-25 01:28:00,
2013-05-24 20:33:00,77.5,63.9,30.17,ESE,112,2.0,-999.0,63,0.00,,,0.00,open2300 v1.10,2013-05-25 01:33:00,
2013-05-24 20:38:00,77.5,63.9,30.17,ESE,112,0.0,-999.0,63,0.00,,,0.00,open2300 v1.10,2013-05-25 01:38:00,
2013-05-24 20:48:00,77.2,63.6,30.17,ESE,112,0.0,-999.0,63,0.00,,,0.00,open2300 v1.10,2013-05-25 01:48:00,
2013-05-24 20:53:00,76.8,63.7,30.17,ESE,112,0.0,-999.0,64,0.00,,,0.00,open2300 v1.10,2013-05-25 01:53:00,
2013-05-24 20:59:00,76.8,63.7,30.17,ESE,112,0.4,-999.0,64,0.00,,,0.00,open2300 v1.10,2013-05-25 01:59:00,
2013-05-24 21:08:00,76.6,63.5,30.17,ESE,112,2.0,-999.0,64,0.00,,,0.00,open2300 v1.10,2013-05-25 02:08:00,
2013-05-24 21:13:00,76.3,63.6,30.17,ESE,112,2.0,-999.0,65,0.00,,,0.00,open2300 v1.10,2013-05-25 02:13:00,
2013-05-24 21:18:00,76.3,63.6,30.17,ESE,112,0.9,-999.0,65,0.00,,,0.00,open2300 v1.10,2013-05-25 02:18:00,
2013-05-24 21:23:00,76.1,63.5,30.17,ESE,112,0.0,-999.0,65,0.00,,,0.00,open2300 v1.10,2013-05-25 02:23:00,
2013-05-24 21:28:00,75.9,63.3,30.17,ESE,112,1.1,-999.0,65,0.00,,,0.00,open2300 v1.10,2013-05-25 02:28:00,
2013-05-24 21:33:00,75.7,63.5,30.17,ESE,112,0.0,-999.0,66,0.00,,,0.00,open2300 v1.10,2013-05-25 02:33:00,
2013-05-24 21:38:00,75.6,63.4,30.17,ESE,112,2.5,-999.0,66,0.00,,,0.00,open2300 v1.10,2013-05-25 02:38:00,
2013-05-24 21:43:00,75.4,63.2,30.17,ESE,112,3.6,-999.0,66,0.00,,,0.00,open2300 v1.10,2013-05-25 02:43:00,
2013-05-24 21:48:00,75.2,63.5,30.18,ESE,112,0.0,-999.0,67,0.00,,,0.00,open2300 v1.10,2013-05-25 02:48:00,
2013-05-24 21:53:00,75.0,63.3,30.18,East,90,0.9,-999.0,67,0.00,,,0.00,open2300 v1.10,2013-05-25 02:53:00,
2013-05-24 21:58:00,74.8,63.1,30.18,ESE,112,4.2,-999.0,67,0.00,,,0.00,open2300 v1.10,2013-05-25 02:58:00,
2013-05-24 22:08:00,74.5,62.8,30.18,ESE,112,8.1,-999.0,67,0.00,,,0.00,open2300 v1.10,2013-05-25 03:08:00,
2013-05-24 22:13:00,74.1,62.9,30.18,East,90,0.0,-999.0,68,0.00,,,0.00,open2300 v1.10,2013-05-25 03:13:00,
2013-05-24 22:18:00,73.9,62.7,30.19,East,90,0.0,-999.0,68,0.00,,,0.00,open2300 v1.10,2013-05-25 03:18:00,
2013-05-24 22:23:00,73.8,63.0,30.19,ESE,112,0.2,-999.0,69,0.00,,,0.00,open2300 v1.10,2013-05-25 03:23:00,
2013-05-24 22:28:00,73.6,62.8,30.19,ESE,112,0.0,-999.0,69,0.00,,,0.00,open2300 v1.10,2013-05-25 03:28:00,
2013-05-24 22:33:00,73.2,62.5,30.19,ESE,112,0.0,-999.0,69,0.00,,,0.00,open2300 v1.10,2013-05-25 03:33:00,
2013-05-24 22:38:00,73.2,63.0,30.19,ESE,112,0.0,-999.0,70,0.00,,,0.00,open2300 v1.10,2013-05-25 03:38:00,
2013-05-24 22:48:00,73.0,62.8,30.19,ESE,112,0.0,-999.0,70,0.00,,,0.00,open2300 v1.10,2013-05-25 03:48:00,
2013-05-24 22:53:00,72.7,62.8,30.19,ESE,112,0.0,-999.0,71,0.00,,,0.00,open2300 v1.10,2013-05-25 03:53:00,
2013-05-24 22:59:00,72.5,62.6,30.19,ESE,112,0.0,-999.0,71,0.00,,,0.00,open2300 v1.10,2013-05-25 03:59:00,
2013-05-24 23:03:00,72.3,62.4,30.19,ESE,112,0.0,-999.0,71,0.00,,,0.00,open2300 v1.10,2013-05-25 04:03:00,
2013-05-24 23:08:00,72.3,62.4,30.19,ESE,112,0.9,-999.0,71,0.00,,,0.00,open2300 v1.10,2013-05-25 04:08:00,
2013-05-24 23:13:00,72.1,62.6,30.19,SE,135,0.0,-999.0,72,0.00,,,0.00,open2300 v1.10,2013-05-25 04:13:00,
2013-05-24 23:18:00,72.1,62.6,30.19,SE,135,0.0,-999.0,72,0.00,,,0.00,open2300 v1.10,2013-05-25 04:18:00,
2013-05-24 23:23:00,72.0,62.5,30.19,SE,135,0.0,-999.0,72,0.00,,,0.00,open2300 v1.10,2013-05-25 04:23:00,
2013-05-24 23:28:00,71.8,61.9,30.19,ESE,112,0.0,-999.0,71,0.00,,,0.00,open2300 v1.10,2013-05-25 04:28:00,
2013-05-24 23:33:00,71.4,61.5,30.19,SE,135,0.0,-999.0,71,0.00,,,0.00,open2300 v1.10,2013-05-25 04:33:00,
2013-05-24 23:38:00,71.2,61.0,30.19,East,90,0.0,-999.0,70,0.00,,,0.00,open2300 v1.10,2013-05-25 04:38:00,
2013-05-24 23:48:00,70.9,60.2,30.19,ESE,112,0.0,-999.0,69,0.00,,,0.00,open2300 v1.10,2013-05-25 04:48:00,
2013-05-24 23:53:00,70.7,60.0,30.19,ESE,112,3.4,-999.0,69,0.00,,,0.00,open2300 v1.10,2013-05-25 04:53:00,
2013-05-24 23:59:00,70.5,59.8,30.19,ESE,112,5.1,-999.0,69,0.00,,,0.00,open2300 v1.10,2013-05-25 04:59:00,